Hourly Weather Roundup
Issued by NWS Central Illinois

Home | Current Version | Previous Version | Text Only | Print | Product List | Glossary On
Versions: 1 2 3 4 5 6 7 8 9 10 11 12 13 14 15 16 17 18 19 20 21 22 23 24 25 26 27 28 29 30 31 32 33 34 35 36 37 38 39 40 41 42 43 44 45 46 47 48 49 50
910
NZUS43 KILX 222310
HWRILX

AREA WEATHER ROUNDUP
NATIONAL WEATHER SERVICE, LINCOLN IL
600 PM CDT WED MAR 22 2017


CITY           SKY/WX    TMP DP  RH WIND       PRES   REMARKS
BLOOMINGTON    MOSUNNY   39  19  44 E14       30.45S WCI  31
CHAMPAIGN      SUNNY     41  18  39 E16       30.43F WCI  33
DECATUR        MOSUNNY   43  13  29 E15       30.42S
EFFINGHAM      MOSUNNY  N/A N/A N/A NE6       30.43R
FLORA          SUNNY     50  19  30 NE10      30.40S THUNDER
GALESBURG      CLOUDY    41  21  45 E9        30.42F WCI  35
JACKSONVILLE   MOSUNNY   46  11  24 E14       30.40S
LACON          MOSUNNY   40  21  45 E6        30.46S
LAWRENCEVILLE  SUNNY     48  15  26 NE14      30.41S
LITCHFIELD     SUNNY     46  15  28 NE10      30.38F
$$


CITY           SKY/WX    TMP DP  RH WIND       PRES   REMARKS
LINCOLN        MOSUNNY   43  19  37 E12       30.44S
MACOMB         PTSUNNY   45  15  30 E13G20    30.44S
MATTOON        SUNNY     43  17  35 NE15      30.41S
MT CARMEL AP   SUNNY     48  14  26 NE10G16   30.39S
OLNEY-NOBLE AP SUNNY     46  14  27 E12       30.40S
PARIS          SUNNY     41  22  48 E15       30.44F WCI  33
PEORIA         MOSUNNY   41  18  39 E10       30.44F WCI  35
PONTIAC        CLOUDY    40  21  46 E13       30.47S WCI  33
RANTOUL        SUNNY     42  23  47 E14       30.44F WCI  34
SPRINGFIELD    MOSUNNY   45  13  27 E13       30.42F
TAYLORVILLE    SUNNY     44  11  25 E12G17    30.40F
$$

...REGIONAL REPORTS...


CITY           SKY/WX    TMP DP  RH WIND       PRES   REMARKS
CHICAGO O`HARE PTSUNNY   34  16  47 NE9       30.51S WCI  27
KANKAKEE       SUNNY     40  18  40 CALM      30.48S
MOLINE         PTSUNNY   42  20  41 SE9       30.44S
MOUNT STERLING CLOUDY    45  12  26 E13       30.39F
MOUNT VERNON   MOSUNNY   48  20  32 NE12G17   30.38S
PITTSFIELD     CLOUDY    47  11  23 E8G17     30.40R
QUINCY         CLOUDY    46  10  23 E14       30.37F
ROCKFORD       PTSUNNY   41  17  38 E9        30.49S
$$


CITY           SKY/WX    TMP DP  RH WIND       PRES   REMARKS
BURLINGTON     MOSUNNY   45  17  32 SE13      30.40F
CEDAR RAPIDS   CLOUDY    41  17  38 SE12      30.40S WCI  34
DES MOINES     CLOUDY    45  23  42 E13       30.32F
KIRKSVILLE     CLOUDY    46  19  34 E12       30.35F
OTTUMWA        CLOUDY    45  19  35 SE13G21   30.36F
ST LOUIS       PTSUNNY   51  17  26 E12       30.37F
$$


CITY           SKY/WX    TMP DP  RH WIND       PRES   REMARKS
TERRE HAUTE    SUNNY     42  16  34 E14       30.43F WCI  35
EVANSVILLE     SUNNY     51  19  28 NE12      30.38R
INDIANAPOLIS   MOSUNNY   39  17  41 E17       30.45S WCI  30
LAFAYETTE      SUNNY     37  18  46 E14       30.47F WCI  28
MADISON        PTSUNNY   38  15  39 SE9       30.46F WCI  31
MILWAUKEE      PTSUNNY   30  17  58 E9        30.54S WCI  22
$$






USA.gov is the U.S. government's official web portal to all federal, state and local government web resources and services.